Lid_Strength_Index
10 10 10 10 10 10 10 10 9 9 8 7 6 6 5 4 3 3 2 2 3 4 5 7 7 8 9 10 10 11 11 12 12 13 13 13 13 13 13 13 13 13 12
11 10 11 11 11 11 11 10 10 9 9 8 7 6 6 6 4 4 4 3 3 4 6 7 8 9 10 11 11 11 12 12 12 13 14 16 15 14 13 13 13 14 14
12 12 12 12 12 12 11 11 10 10 9 9 8 8 7 8 8 7 6 5 4 5 5 7 8 9 10 10 11 11 11 13 13 12 13 15 16 16 15 15 14 14 15
11 11 12 12 12 12 12 12 11 11 10 9 9 9 9 10 10 9 8 7 6 6 6 7 8 9 10 11 11 11 11 12 13 13 12 13 13 16 18 15 15 15 15
11 12 12 11 11 12 12 12 12 11 11 11 11 11 11 10 10 10 10 10 8 8 8 8 9 10 11 12 12 12 12 12 13 13 14 14 14 14 16 18 17 16 16
11 12 11 12 12 12 13 13 13 12 11 11 12 12 12 12 12 12 12 11 10 10 9 9 9 10 11 12 12 13 13 13 13 12 14 14 15 15 15 16 17 17 16
12 12 12 12 12 13 13 13 14 14 13 12 12 12 13 13 13 13 12 12 12 11 10 10 11 10 10 11 12 13 13 13 13 14 13 14 14 14 14 15 17 17 17
11 12 12 12 12 13 12 13 14 14 13 13 13 13 13 12 13 13 13 13 13 12 11 11 11 11 11 11 12 13 14 14 13 14 14 14 14 13 14 15 17 18 19
11 11 12 12 12 12 13 12 13 14 15 14 14 14 13 13 14 13 13 13 13 12 12 12 12 12 12 12 12 14 14 14 14 13 14 14 14 14 14 14 15 16 20
12 12 12 13 12 12 12 12 13 13 14 14 13 13 13 14 14 14 14 14 13 13 13 13 13 13 13 13 14 14 14 14 15 14 15 14 15 14 14 14 15 15 16
13 13 12 13 13 13 13 14 13 13 14 14 13 14 15 15 14 14 14 14 14 13 13 13 13 13 13 13 14 15 14 14 14 15 15 15 15 14 15 15 15 15 16
13 13 12 12 13 13 14 14 13 14 14 14 14 14 14 14 15 15 15 14 13 13 13 13 14 14 13 14 14 14 14 15 15 15 15 15 14 15 16 16 14 14 16
13 12 12 13 13 13 13 13 14 14 13 14 15 15 15 15 15 16 16 15 14 14 13 13 13 14 14 14 14 13 13 14 14 14 15 14 15 15 14 15 15 14 15
11 13 14 14 12 12 13 13 13 13 13 13 14 15 15 15 15 15 16 16 15 15 15 14 13 12 13 14 14 14 14 13 13 13 13 13 14 14 14 14 15 15 15
11 12 12 13 12 12 12 12 12 12 13 13 14 14 14 13 14 14 15 15 15 14 14 14 14 13 13 12 13 13 15 14 14 13 13 13 13 12 13 14 14 14 15
11 11 11 11 11 11 11 10 12 12 12 13 14 13 13 13 14 14 14 14 14 14 14 14 14 14 13 11 10 10 12 12 13 13 13 13 13 13 11 11 11 12 14
10 10 9 10 10 10 9 10 10 11 13 14 13 13 13 13 13 13 14 14 15 15 15 15 14 14 14 11 10 9 11 12 12 12 12 12 13 13 14 12 11 11 10
10 9 9 8 8 8 9 9 10 11 11 12 12 12 12 13 13 13 14 14 14 15 15 15 15 15 14 11 11 10 11 12 11 11 12 12 12 12 13 14 14 13 13
8 8 8 8 8 9 9 10 11 11 11 11 11 12 12 13 12 13 13 13 13 14 15 15 15 16 15 13 12 11 13 12 12 11 11 11 11 10 9 12 14 14 14
8 8 8 8 9 10 10 11 12 13 13 12 12 12 13 14 14 14 14 13 14 14 14 14 14 15 16 13 12 12 13 14 13 12 12 11 11 9 9 11 12 15 15
9 9 10 10 10 11 12 13 13 14 14 14 15 16 16 17 17 17 17 17 17 17 17 17 17 17 16 16 13 12 13 13 13 13 12 11 9 9 8 8 11 12 11
10 10 11 11 11 12 14 15 15 15 16 17 18 19 20 20 19 20 20 20 20 20 20 20 19 18 17 15 14 13 12 11 13 12 11 11 8 8 8 9 9 9 10
11 11 14 14 13 15 15 17 16 16 18 20 21 21 21 21 21 22 22 22 22 22 22 21 21 20 18 18 15 14 13 12 13 12 10 9 8 8 8 8 8 9 10
13 14 16 17 17 16 15 18 17 18 20 22 22 21 22 22 22 22 22 23 23 24 23 23 23 23 22 21 19 18 17 15 14 11 11 10 9 9 9 9 8 8 9
14 16 17 17 17 16 17 19 18 20 21 21 21 22 22 23 23 22 22 21 20 20 21 21 20 21 20 19 16 16 17 16 15 14 13 13 13 13 12 10 9 9 9
16 16 17 17 18 18 19 19 21 22 22 22 22 23 24 24 23 23 23 18 16 15 15 14 16 17 15 14 14 14 13 13 12 14 15 15 14 13 13 11 10 10 10